Weather History for Resia Pass, Italy

Change the Weather History Date:

Thursday, August 1, 2013

  Actual Average Record
Temperature  
Mean Temperature 62 °F -  
Max Temperature 73 °F 67 °F 78 °F (2001)
Min Temperature 51 °F 49 °F 42 °F (2000)
Degree Days  
Heating Degree Days 3    
Growing Degree Days 12 (Base 50)    
Moisture  
Dew Point 44 °F    
Average Humidity 53    
Maximum Humidity 77    
Minimum Humidity 29    
Precipitation  
Precipitation 0.00 in - - ()
Sea Level Pressure  
Sea Level Pressure 30.28 in    
Wind  
Wind Speed 4 mph ()    
Max Wind Speed 9 mph    
Max Gust Speed -    
Averages and records for this station are not official NWS values.
T = Trace of Precipitation, MM = Missing Value Source: Averaged Metar Reports

Daily Weather History Graph

Daily Weather History Graph

Search for Another Location

Airport:

Trip Planner

Search our weather history database for the weather conditions in past years. The results will help you decide how hot, cold, wet, or windy it might be!

Date:

Astronomy

Aug. 01, 2013 Rise Set
Actual Time 5:57 AM CEST 8:49 PM CEST
Civil Twilight 5:22 AM CEST 9:25 PM CEST
Nautical Twilight 4:37 AM CEST 10:10 PM CEST
Astronomical Twilight 3:43 AM CEST 11:03 PM CEST
Moon 1:21 AM CEST (8/1) 4:46 PM CEST (8/1)
Length of Visible Light 16h 02m
Length of Day
14h 52m
Waning Crescent, 25% of the Moon is Illuminated
Aug 1
Waning Crescent
Aug 6
New
Aug 14
First Quarter
Aug 21
Full
Aug 28
Last Quarter

Hourly Weather History & Observations

Time (CEST) Temp. Dew Point Humidity Pressure Visibility Wind Dir Wind Speed Gust Speed Precip Events Conditions
12:55 AM 59.0 °F 41.0 °F 51% 30.30 in - North 5.8 mph - N/A   Clear
1:55 AM 57.2 °F 42.8 °F 59% 30.30 in - NNE 4.6 mph - N/A   Clear
2:55 AM 57.2 °F 44.6 °F 63% 30.30 in - North 3.5 mph - N/A   Clear
3:55 AM 55.4 °F 44.6 °F 67% 30.30 in - NNE 5.8 mph - N/A   Clear
4:55 AM 53.6 °F 44.6 °F 72% 30.30 in - NNE 4.6 mph - N/A   Clear
5:55 AM 53.6 °F 44.6 °F 72% 30.30 in - NNE 4.6 mph - N/A   Clear
6:55 AM 51.8 °F 44.6 °F 76% 30.30 in - NNE 4.6 mph - N/A   Clear
7:55 AM 51.8 °F 44.6 °F 76% 30.30 in - NNE 4.6 mph - N/A   Clear
8:55 AM 53.6 °F 46.4 °F 77% 30.30 in - North 4.6 mph - N/A   Clear
9:55 AM 57.2 °F 46.4 °F 67% 30.30 in - Calm Calm - N/A   Clear
10:55 AM 60.8 °F 46.4 °F 59% 30.30 in - SSW 4.6 mph - N/A   Clear
11:55 AM 66.2 °F 39.2 °F 37% 30.30 in - South 8.1 mph - N/A   Clear
12:55 PM 69.8 °F 41.0 °F 35% 30.30 in - South 8.1 mph - N/A   Clear
1:55 PM 71.6 °F 39.2 °F 31% 30.27 in - South 9.2 mph - N/A   Clear
2:55 PM 73.4 °F 42.8 °F 33% 30.27 in - South 6.9 mph - N/A   Clear
3:55 PM 73.4 °F 39.2 °F 29% 30.24 in - SSE 9.2 mph - N/A   Clear
4:55 PM 73.4 °F 44.6 °F 36% 30.24 in - South 6.9 mph - N/A   Clear
5:55 PM 73.4 °F 44.6 °F 36% 30.24 in - South 6.9 mph - N/A   Clear
6:55 PM 73.4 °F 39.2 °F 29% 30.24 in - South 4.6 mph - N/A   Clear
7:55 PM 69.8 °F 46.4 °F 43% 30.24 in - SSW 3.5 mph - N/A   Clear
8:55 PM 68.0 °F 44.6 °F 43% 30.24 in - Calm Calm - N/A   Clear
9:55 PM 66.2 °F 50.0 °F 56% 30.27 in - Calm Calm - N/A   Clear
10:55 PM 64.4 °F 51.8 °F 64% 30.27 in - Calm Calm - N/A   Clear
11:55 PM 62.6 °F 50.0 °F 63% 30.30 in - Calm Calm - N/A   Clear